Weather History for KHZE - June, 2014

Change the Weather History Date:

Saturday, June 7, 2014

  Actual Average (KN60) Record (KN60)
Temperature  
Mean Temperature 52 °F -  
Max Temperature 68 °F 68 °F 84 °F (1997)
Min Temperature 37 °F 47 °F 39 °F (1998)
Degree Days  
Heating Degree Days 12    
Growing Degree Days 2 (Base 50)    
Moisture  
Dew Point 39 °F    
Average Humidity 64    
Maximum Humidity 100    
Minimum Humidity 26    
Precipitation  
Precipitation 0.00 in - - ()
Sea Level Pressure  
Sea Level Pressure 30.13 in    
Wind  
Wind Speed 6 mph (SW)    
Max Wind Speed 9 mph    
Max Gust Speed -    
Visibility 10 miles    
Events      
Averages and records for this station are not official NWS values.
T = Trace of Precipitation, MM = Missing Value Source: NWS Daily Summary

Daily Weather History Graph

Daily Weather History Graph

Search for Another Location

Airport or City:

Trip Planner

Search our weather history database for the weather conditions in past years. The results will help you decide how hot, cold, wet, or windy it might be!

Date:

Astronomy

Jun. 07, 2014 Rise Set
Actual Time 5:51 AM CDT 9:39 PM CDT
Civil Twilight 5:11 AM CDT 10:19 PM CDT
Nautical Twilight 4:17 AM CDT 11:13 PM CDT
Astronomical Twilight 2:59 AM CDT 12:32 AM CDT
Moon 3:38 PM CDT (6/7) 2:37 AM CDT (6/7)
Length of Visible Light 17h 08m
Length of Day
15h 48m
Waxing Gibbous, 68% of the Moon is Illuminated
Jun 7
Waxing Gibbous
Jun 12
Full
Jun 19
Last Quarter
Jun 27
New
Jul 5
First Quarter

Hourly Weather History & Observations

Time (CDT) Temp. Windchill Dew Point Humidity Pressure Visibility Wind Dir Wind Speed Gust Speed Precip Events Conditions
12:15 AM 46.4 °F 42.9 °F 41.0 °F 81% 30.14 in 10.0 mi West 6.9 mph - N/A   Mostly Cloudy
12:35 AM 44.6 °F 42.2 °F 41.0 °F 87% 30.14 in 10.0 mi WSW 4.6 mph - N/A   Overcast
12:55 AM 44.6 °F 41.4 °F 41.0 °F 87% 30.14 in 10.0 mi SW 5.8 mph - N/A   Overcast
1:15 AM 44.6 °F 40.7 °F 39.2 °F 81% 30.14 in 10.0 mi SW 6.9 mph - N/A   Overcast
1:35 AM 41.0 °F 38.0 °F 39.2 °F 93% 30.14 in 10.0 mi SSW 4.6 mph - N/A   Mostly Cloudy
1:55 AM 42.8 °F 40.1 °F 39.2 °F 87% 30.15 in 10.0 mi SW 4.6 mph - N/A   Partly Cloudy
2:15 AM 42.8 °F 39.3 °F 39.2 °F 87% 30.15 in 10.0 mi SSW 5.8 mph - N/A   Partly Cloudy
2:35 AM 44.6 °F 41.4 °F 39.2 °F 81% 30.15 in 10.0 mi SW 5.8 mph - N/A   Mostly Cloudy
2:55 AM 42.8 °F 38.6 °F 39.2 °F 87% 30.15 in 10.0 mi SW 6.9 mph - N/A   Mostly Cloudy
3:15 AM 41.0 °F 39.0 °F 37.4 °F 87% 30.16 in 10.0 mi SW 3.5 mph - N/A   Mostly Cloudy
3:35 AM 41.0 °F 37.1 °F 37.4 °F 87% 30.16 in 10.0 mi SW 5.8 mph - N/A   Mostly Cloudy
3:55 AM 41.0 °F 37.1 °F 39.2 °F 93% 30.16 in 10.0 mi SW 5.8 mph - N/A   Mostly Cloudy
4:15 AM 39.2 °F 35.9 °F 37.4 °F 93% 30.17 in 10.0 mi WSW 4.6 mph - N/A   Mostly Cloudy
4:35 AM 39.2 °F 34.2 °F 37.4 °F 93% 30.17 in 10.0 mi WSW 6.9 mph - N/A   Mostly Cloudy
4:55 AM 39.2 °F 34.2 °F 39.2 °F 100% 30.17 in 10.0 mi SW 6.9 mph - N/A   Scattered Clouds
5:15 AM 39.2 °F 35.0 °F 37.4 °F 93% 30.17 in 10.0 mi WSW 5.8 mph - N/A   Partly Cloudy
5:35 AM 37.4 °F 32.8 °F 37.4 °F 100% 30.16 in 10.0 mi SW 5.8 mph - N/A   Clear
5:55 AM 37.4 °F 34.9 °F 35.6 °F 93% 30.16 in 10.0 mi SSW 3.5 mph - N/A   Scattered Clouds
6:15 AM 39.2 °F 35.9 °F 37.4 °F 93% 30.16 in 10.0 mi SW 4.6 mph - N/A   Mostly Cloudy
6:35 AM 39.2 °F 35.9 °F 39.2 °F 100% 30.16 in 10.0 mi SW 4.6 mph - N/A   Partly Cloudy
6:55 AM 41.0 °F - 39.2 °F 93% 30.17 in 10.0 mi Calm Calm - N/A   Clear
7:15 AM 41.0 °F 37.1 °F 41.0 °F 100% 30.16 in 10.0 mi WSW 5.8 mph - N/A   Clear
7:55 AM 46.4 °F 42.4 °F 41.0 °F 81% 30.17 in 10.0 mi West 8.1 mph - N/A   Clear
8:15 AM 48.2 °F - 41.0 °F 76% 30.17 in 10.0 mi WSW 8.1 mph - N/A   Clear
8:35 AM 50.0 °F - 42.8 °F 76% 30.17 in 10.0 mi West 6.9 mph - N/A   Clear
8:55 AM 50.0 °F - 44.6 °F 82% 30.17 in 10.0 mi West 3.5 mph - N/A   Clear
9:15 AM 51.8 °F - 44.6 °F 76% 30.17 in 10.0 mi WSW 4.6 mph - N/A   Clear
9:35 AM 53.6 °F - 44.6 °F 72% 30.17 in 10.0 mi SW 3.5 mph - N/A   Clear
9:55 AM 55.4 °F - 44.6 °F 67% 30.17 in 10.0 mi SW 3.5 mph - N/A   Clear
10:15 AM 57.2 °F - 44.6 °F 63% 30.17 in 10.0 mi WSW 3.5 mph - N/A   Clear
10:35 AM 57.2 °F - 44.6 °F 63% 30.16 in 10.0 mi West 5.8 mph - N/A   Clear
10:55 AM 59.0 °F - 42.8 °F 55% 30.15 in 10.0 mi West 4.6 mph - N/A   Clear
11:15 AM 60.8 °F - 42.8 °F 52% 30.15 in 10.0 mi NW 4.6 mph - N/A   Clear
12:15 PM 60.8 °F - 37.4 °F 42% 30.14 in 10.0 mi North 4.6 mph - N/A   Mostly Cloudy
12:35 PM 60.8 °F - 39.2 °F 45% 30.14 in 10.0 mi WSW 4.6 mph - N/A   Mostly Cloudy
12:55 PM 62.6 °F - 39.2 °F 42% 30.14 in 10.0 mi West 6.9 mph - N/A   Mostly Cloudy
1:15 PM 62.6 °F - 37.4 °F 39% 30.13 in 10.0 mi Calm Calm - N/A   Mostly Cloudy
1:35 PM 64.4 °F - 35.6 °F 34% 30.12 in 10.0 mi West 8.1 mph - N/A   Partly Cloudy
1:55 PM 64.4 °F - 35.6 °F 34% 30.12 in 10.0 mi West 6.9 mph - N/A   Scattered Clouds
2:15 PM 66.2 °F - 33.8 °F 30% 30.12 in 10.0 mi West 9.2 mph - N/A   Partly Cloudy
2:35 PM 66.2 °F - 32.0 °F 28% 30.11 in 10.0 mi SW 3.5 mph - N/A   Clear
2:55 PM 66.2 °F - 32.0 °F 28% 30.11 in 10.0 mi North 4.6 mph - N/A   Clear
3:15 PM 66.2 °F - 33.8 °F 30% 30.11 in 10.0 mi WNW 8.1 mph - N/A   Partly Cloudy
3:35 PM 66.2 °F - 32.0 °F 28% 30.10 in 10.0 mi South 3.5 mph - N/A   Mostly Cloudy
3:55 PM 66.2 °F - 33.8 °F 30% 30.10 in 10.0 mi SW 4.6 mph - N/A   Scattered Clouds
4:15 PM 68.0 °F - 35.6 °F 30% 30.09 in 10.0 mi WSW 9.2 mph - N/A   Scattered Clouds
4:35 PM 66.2 °F - 33.8 °F 30% 30.09 in 10.0 mi West 4.6 mph - N/A   Scattered Clouds
4:55 PM 66.2 °F - 33.8 °F 30% 30.09 in 10.0 mi NW 8.1 mph - N/A   Partly Cloudy
5:15 PM 68.0 °F - 32.0 °F 26% 30.09 in 10.0 mi NW 5.8 mph - N/A   Mostly Cloudy
5:35 PM 66.2 °F - 33.8 °F 30% 30.09 in 10.0 mi NNW 6.9 mph - N/A   Partly Cloudy
5:55 PM 66.2 °F - 32.0 °F 28% 30.09 in 10.0 mi NW 3.5 mph - N/A   Scattered Clouds
6:15 PM 64.4 °F - 35.6 °F 34% 30.08 in 10.0 mi SW 3.5 mph - N/A   Scattered Clouds
6:35 PM 66.2 °F - 35.6 °F 32% 30.08 in 10.0 mi SW 5.8 mph - N/A   Partly Cloudy
6:55 PM 64.4 °F - 37.4 °F 37% 30.08 in 10.0 mi SSW 5.8 mph - N/A   Clear
7:15 PM 64.4 °F - 39.2 °F 40% 30.08 in 10.0 mi South 3.5 mph - N/A   Clear
7:35 PM 62.6 °F - 41.0 °F 45% 30.08 in 10.0 mi SSE 5.8 mph - N/A   Mostly Cloudy
7:55 PM 59.0 °F - 44.6 °F 59% 30.08 in 10.0 mi SSE 4.6 mph - N/A   Mostly Cloudy
8:15 PM 59.0 °F - 44.6 °F 59% 30.08 in 10.0 mi SE 5.8 mph - N/A   Overcast
8:55 PM 60.8 °F - 46.4 °F 59% 30.08 in 10.0 mi South 5.8 mph - N/A   Overcast
9:15 PM 57.2 °F - 44.6 °F 63% 30.08 in 10.0 mi South 6.9 mph - N/A   Mostly Cloudy
9:35 PM 55.4 °F - 42.8 °F 63% 30.08 in 10.0 mi SSE 6.9 mph - N/A   Scattered Clouds
9:55 PM 50.0 °F - 44.6 °F 82% 30.08 in 10.0 mi SSE 5.8 mph - N/A   Partly Cloudy
10:15 PM 48.2 °F - 42.8 °F 82% 30.08 in 10.0 mi SSE 6.9 mph - N/A   Clear
10:35 PM 48.2 °F - 41.0 °F 76% 30.09 in 10.0 mi South 8.1 mph - N/A   Clear
11:15 PM 50.0 °F - 41.0 °F 71% 30.09 in 10.0 mi South 9.2 mph - N/A   Clear
11:35 PM 48.2 °F - 41.0 °F 76% 30.09 in 10.0 mi South 8.1 mph - N/A   Clear
11:55 PM 48.2 °F - 41.0 °F 76% 30.09 in 10.0 mi South 8.1 mph - N/A   Clear